Retour au catalogue

IRIDIUM 33 DEB

ActifPO
NORAD 40998·DEBRIS·🇺🇸 United States

Lancé Sep 14, 1997 depuis Baikonur Cosmodrome

Loading…

Prochains Passages (prochaines 24 heures)

TLE

FraisSource: Space-Track

Époque: Sep 12, 2026, 09:53 UTC

1 40998U 97051ABL 26255.41201568  .00000804  00000-0  22044-3 0  9996
2 40998  86.3801 296.6900 0005372 238.7455 182.3254 14.45926966106353

Suivez IRIDIUM 33 DEB en temps réel avec AllMySat

Download on the App Store